Darstellungsparameter: Aktuell verwendete Einstellungen:
Skalierung der Graphiken ... ?
xyx+y,   Skalierungsfaktor:      Skalierung: Modus: x, Faktor: 1
Darstellungszeitraum ... ?
Vom - - bis: - -   Zeitraum: 19.04.2021 - 20.04.2021
Min/Max/Avg-Anzeige ... ?
Zeige MMA aktuell
Zeige MMA Monat
Zeige MMA alles
Zeige --A aktuell
Zeige --A Monat
Zeige --A alles
Keine MMA-Anzeige
MMA:
Minimum Maximum Average (ber die Originaldaten)
MMA-Basis: 19.04.2021 - 20.04.2021
Quicknavigation für Darstellung... ?
Tage:      1T, 2T, 3T, 5T -1T -2T -3T -5T +1T +2T +3T +5T
Wochen: 1W, 2W, 3W -1W -2W -3W +1W +2W +3W
Monate: 1M, 3M, 6M -1M -3M -6M +1M +3M +6M
Jahre:    1J, 3J, 5J, 10J -1J -3J -5J -10J +1J +3J +5J +10J
Nutze für die Darstellung ... ?
Originaldaten oder Mittelwerte auf ...
Stundenbasis Tagesbasis Wochenbasis
Monatsbasis Jahresbasis      Datenbasis: Original-Daten
Darstellen als:
Statistik (Auto) Statistik J:M      Darstellung:
Zur Graphik,    zurück zur Übersicht aller Sensoren.
 
Tabellarische Datenbersicht: ?
 
Sensor: Nr:Datum:Temp:Abs-Feuchte:Windchill:Wind:
Aussen-T/F 1 19-04-2021 00:00:00 8.2 C 7.45 g/m*3 8.2 C 0 km/h
2 19-04-2021 00:05:00 8.2 C 7.45 g/m*3 8.2 C 0 km/h
3 19-04-2021 00:10:00 8.2 C 7.45 g/m*3 8.2 C 0 km/h
4 19-04-2021 00:15:00 8.2 C 7.45 g/m*3 8.2 C 0 km/h
5 19-04-2021 00:20:00 8.2 C 7.45 g/m*3 8.2 C 0 km/h
6 19-04-2021 00:25:00 8.2 C 7.45 g/m*3 8.2 C 0 km/h
7 19-04-2021 00:30:00 8.2 C 7.45 g/m*3 8.2 C 0 km/h
8 19-04-2021 00:35:00 8.2 C 7.54 g/m*3 8.2 C 1.6 km/h
9 19-04-2021 00:40:00 8.3 C 7.59 g/m*3 8.3 C 4.8 km/h
10 19-04-2021 00:45:00 8.4 C 7.55 g/m*3 8.4 C 1.6 km/h
11 19-04-2021 00:50:00 8.4 C 7.55 g/m*3 8.4 C 0 km/h
12 19-04-2021 00:55:00 8.4 C 7.55 g/m*3 8.4 C 0 km/h
13 19-04-2021 01:00:00 8.5 C 7.6 g/m*3 8.5 C 0 km/h
14 19-04-2021 01:05:00 8.5 C 7.6 g/m*3 8.5 C 0 km/h
15 19-04-2021 01:10:00 8.5 C 7.6 g/m*3 8.5 C 0 km/h
16 19-04-2021 01:15:00 8.5 C 7.6 g/m*3 8.5 C 0 km/h
17 19-04-2021 01:20:00 8.5 C 7.6 g/m*3 8.5 C 0 km/h
18 19-04-2021 01:25:00 8.5 C 7.6 g/m*3 8.5 C 0 km/h
19 19-04-2021 01:30:00 8.5 C 7.6 g/m*3 8.5 C 0 km/h
20 19-04-2021 01:35:00 8.5 C 7.6 g/m*3 8.5 C 0 km/h
21 19-04-2021 01:40:00 8.6 C 7.65 g/m*3 8.6 C 0 km/h
22 19-04-2021 01:45:00 8.6 C 7.73 g/m*3 8.6 C 0 km/h
23 19-04-2021 01:50:00 8.6 C 7.73 g/m*3 8.6 C 1.6 km/h
24 19-04-2021 01:55:00 8.6 C 7.73 g/m*3 8.6 C 3.2 km/h
25 19-04-2021 02:00:00 8.6 C 7.82 g/m*3 8.6 C 3.2 km/h
Sensor: Nr:Datum:Temp:Abs-Feuchte:Windchill:Wind:
Aussen-T/F 26 19-04-2021 02:05:00 8.6 C 7.82 g/m*3 8.6 C 0 km/h
27 19-04-2021 02:10:00 8.6 C 7.82 g/m*3 8.6 C 0 km/h
28 19-04-2021 02:15:00 8.6 C 7.82 g/m*3 8.6 C 0 km/h
29 19-04-2021 02:20:00 8.6 C 7.91 g/m*3 8.6 C 0 km/h
30 19-04-2021 02:25:00 8.6 C 7.91 g/m*3 8.6 C 1.6 km/h
31 19-04-2021 02:30:00 8.5 C 7.85 g/m*3 8.5 C 1.6 km/h
32 19-04-2021 02:35:00 8.4 C 7.8 g/m*3 8.4 C 1.6 km/h
33 19-04-2021 02:40:00 8.4 C 7.8 g/m*3 8.4 C 0 km/h
34 19-04-2021 02:45:00 8.3 C 7.75 g/m*3 8.3 C 0 km/h
35 19-04-2021 02:50:00 8.3 C 7.75 g/m*3 8.3 C 0 km/h
36 19-04-2021 02:55:00 8.3 C 7.75 g/m*3 8.3 C 0 km/h
37 19-04-2021 03:00:00 8.3 C 7.75 g/m*3 8.3 C 0 km/h
38 19-04-2021 03:05:00 8.2 C 7.7 g/m*3 8.2 C 0 km/h
39 19-04-2021 03:10:00 8.2 C 7.79 g/m*3 8.2 C 1.6 km/h
40 19-04-2021 03:15:00 8.2 C 7.79 g/m*3 8.2 C 3.2 km/h
41 19-04-2021 03:20:00 8.2 C 7.79 g/m*3 8.2 C 1.6 km/h
42 19-04-2021 03:25:00 8.2 C 7.79 g/m*3 8.2 C 1.6 km/h
43 19-04-2021 03:30:00 8.2 C 7.79 g/m*3 8.2 C 0 km/h
44 19-04-2021 03:35:00 8.2 C 7.79 g/m*3 8.2 C 0 km/h
45 19-04-2021 03:40:00 8.1 C 7.74 g/m*3 8.1 C 0 km/h
46 19-04-2021 03:45:00 8 C 7.69 g/m*3 8 C 0 km/h
47 19-04-2021 03:50:00 7.9 C 7.64 g/m*3 7.9 C 0 km/h
48 19-04-2021 03:55:00 7.9 C 7.64 g/m*3 7.9 C 0 km/h
49 19-04-2021 04:00:00 7.8 C 7.59 g/m*3 7.8 C 0 km/h
50 19-04-2021 04:05:00 7.8 C 7.59 g/m*3 7.8 C 0 km/h
Sensor: Nr:Datum:Temp:Abs-Feuchte:Windchill:Wind:
Aussen-T/F 51 19-04-2021 04:10:00 7.8 C 7.59 g/m*3 7.8 C 0 km/h
52 19-04-2021 04:15:00 7.8 C 7.67 g/m*3 7.8 C 0 km/h
53 19-04-2021 04:20:00 7.8 C 7.67 g/m*3 7.8 C 0 km/h
54 19-04-2021 04:25:00 7.8 C 7.67 g/m*3 7.8 C 0 km/h
55 19-04-2021 04:30:00 7.8 C 7.67 g/m*3 7.8 C 0 km/h
56 19-04-2021 04:35:00 7.8 C 7.67 g/m*3 7.8 C 0 km/h
57 19-04-2021 04:40:00 7.8 C 7.67 g/m*3 7.8 C 0 km/h
58 19-04-2021 04:45:00 7.8 C 7.67 g/m*3 7.8 C 0 km/h
59 19-04-2021 04:50:00 7.7 C 7.62 g/m*3 7.7 C 0 km/h
60 19-04-2021 04:55:00 7.7 C 7.62 g/m*3 7.7 C 0 km/h
61 19-04-2021 05:00:00 7.7 C 7.62 g/m*3 7.7 C 0 km/h
62 19-04-2021 05:05:00 7.7 C 7.62 g/m*3 7.7 C 0 km/h
63 19-04-2021 05:10:00 7.7 C 7.62 g/m*3 7.7 C 0 km/h
64 19-04-2021 05:15:00 7.7 C 7.62 g/m*3 7.7 C 0 km/h
65 19-04-2021 05:20:00 7.7 C 7.62 g/m*3 7.7 C 0 km/h
66 19-04-2021 05:25:00 7.7 C 7.62 g/m*3 7.7 C 0 km/h
67 19-04-2021 05:30:00 7.7 C 7.62 g/m*3 7.7 C 0 km/h
68 19-04-2021 05:35:00 7.7 C 7.62 g/m*3 7.7 C 0 km/h
69 19-04-2021 05:40:00 7.7 C 7.62 g/m*3 7.7 C 0 km/h
70 19-04-2021 05:45:00 7.7 C 7.62 g/m*3 7.7 C 0 km/h
71 19-04-2021 05:50:00 7.7 C 7.62 g/m*3 7.7 C 0 km/h
72 19-04-2021 05:55:00 7.7 C 7.7 g/m*3 7.7 C 0 km/h
73 19-04-2021 06:00:00 7.7 C 7.7 g/m*3 7.7 C 0 km/h
74 19-04-2021 06:05:00 7.7 C 7.62 g/m*3 7.7 C 0 km/h
75 19-04-2021 06:10:00 7.7 C 7.62 g/m*3 7.7 C 0 km/h
Sensor: Nr:Datum:Temp:Abs-Feuchte:Windchill:Wind:
Aussen-T/F 76 19-04-2021 06:15:00 7.6 C 7.65 g/m*3 7.6 C 0 km/h
77 19-04-2021 06:20:00 7.6 C 7.57 g/m*3 7.6 C 0 km/h
78 19-04-2021 06:25:00 7.5 C 7.6 g/m*3 7.5 C 0 km/h
79 19-04-2021 06:30:00 7.4 C 7.48 g/m*3 7.4 C 0 km/h
80 19-04-2021 06:35:00 7.4 C 7.48 g/m*3 7.4 C 0 km/h
81 19-04-2021 06:40:00 7.4 C 7.48 g/m*3 7.4 C 0 km/h
82 19-04-2021 06:45:00 7.4 C 7.55 g/m*3 7.4 C 0 km/h
83 19-04-2021 06:50:00 7.4 C 7.55 g/m*3 7.4 C 0 km/h
84 19-04-2021 06:55:00 7.4 C 7.55 g/m*3 7.4 C 0 km/h
85 19-04-2021 07:00:00 7.6 C 7.65 g/m*3 7.6 C 0 km/h
86 19-04-2021 07:05:00 7.6 C 7.65 g/m*3 7.6 C 0 km/h
87 19-04-2021 07:10:00 7.7 C 7.7 g/m*3 7.7 C 0 km/h
88 19-04-2021 07:15:00 7.7 C 7.7 g/m*3 7.7 C 0 km/h
89 19-04-2021 07:20:00 7.7 C 7.7 g/m*3 7.7 C 0 km/h
90 19-04-2021 07:25:00 7.7 C 7.7 g/m*3 7.7 C 0 km/h
91 19-04-2021 07:30:00 7.8 C 7.75 g/m*3 7.8 C 0 km/h
92 19-04-2021 07:35:00 7.8 C 7.75 g/m*3 7.8 C 0 km/h
93 19-04-2021 07:40:00 7.8 C 7.75 g/m*3 7.8 C 0 km/h
94 19-04-2021 07:45:00 7.9 C 7.8 g/m*3 7.9 C 0 km/h
95 19-04-2021 07:50:00 7.9 C 7.8 g/m*3 7.9 C 0 km/h
96 19-04-2021 07:55:00 7.9 C 7.8 g/m*3 7.9 C 0 km/h
97 19-04-2021 08:00:00 7.9 C 7.8 g/m*3 7.9 C 0 km/h
98 19-04-2021 08:05:00 8 C 7.85 g/m*3 8 C 0 km/h
99 19-04-2021 08:10:00 8.1 C 7.9 g/m*3 8.1 C 0 km/h
100 19-04-2021 08:15:00 8.1 C 7.99 g/m*3 8.1 C 0 km/h
Sensor: Nr:Datum:Temp:Abs-Feuchte:Windchill:Wind:
Aussen-T/F 101 19-04-2021 08:20:00 8.2 C 8.04 g/m*3 8.2 C 0 km/h
102 19-04-2021 08:25:00 8.2 C 8.04 g/m*3 8.2 C 0 km/h
103 19-04-2021 08:30:00 8.2 C 8.04 g/m*3 8.2 C 0 km/h
104 19-04-2021 08:35:00 8.2 C 8.04 g/m*3 8.2 C 0 km/h
105 19-04-2021 08:40:00 8.2 C 8.04 g/m*3 8.2 C 0 km/h
106 19-04-2021 08:45:00 8.2 C 8.04 g/m*3 8.2 C 0 km/h
107 19-04-2021 08:50:00 8.2 C 8.04 g/m*3 8.2 C 0 km/h
108 19-04-2021 08:55:00 8.3 C 8.09 g/m*3 8.3 C 0 km/h
109 19-04-2021 09:00:00 8.3 C 8.09 g/m*3 8.3 C 0 km/h
110 19-04-2021 09:05:00 8.3 C 8.09 g/m*3 8.3 C 0 km/h
111 19-04-2021 09:10:00 8.3 C 8.09 g/m*3 8.3 C 0 km/h
112 19-04-2021 09:15:00 8.3 C 8.09 g/m*3 8.3 C 0 km/h
113 19-04-2021 09:20:00 8.3 C 8.09 g/m*3 8.3 C 0 km/h
114 19-04-2021 09:25:00 8.3 C 8.09 g/m*3 8.3 C 0 km/h
115 19-04-2021 09:30:00 8.3 C 8.09 g/m*3 8.3 C 0 km/h
116 19-04-2021 09:35:00 8.3 C 8.09 g/m*3 8.3 C 0 km/h
117 19-04-2021 09:40:00 8.3 C 8.09 g/m*3 8.3 C 0 km/h
118 19-04-2021 09:45:00 8.3 C 8.09 g/m*3 8.3 C 0 km/h
119 19-04-2021 09:50:00 8.3 C 8.09 g/m*3 8.3 C 0 km/h
120 19-04-2021 09:55:00 8.4 C 8.14 g/m*3 8.4 C 0 km/h
121 19-04-2021 10:00:00 8.4 C 8.14 g/m*3 8.4 C 0 km/h
122 19-04-2021 10:05:00 8.6 C 8.25 g/m*3 8.6 C 0 km/h
123 19-04-2021 10:10:00 8.6 C 8.25 g/m*3 8.6 C 0 km/h
124 19-04-2021 10:15:00 8.7 C 8.3 g/m*3 8.7 C 0 km/h
125 19-04-2021 10:20:00 8.7 C 8.3 g/m*3 8.7 C 0 km/h
Sensor: Nr:Datum:Temp:Abs-Feuchte:Windchill:Wind:
Aussen-T/F 126 19-04-2021 10:25:00 8.8 C 8.36 g/m*3 8.8 C 1.6 km/h
127 19-04-2021 10:30:00 8.8 C 8.36 g/m*3 8.8 C 0 km/h
128 19-04-2021 10:35:00 8.8 C 8.27 g/m*3 8.8 C 0 km/h
129 19-04-2021 10:40:00 8.9 C 8.41 g/m*3 8.9 C 0 km/h
130 19-04-2021 10:45:00 9.1 C 8.52 g/m*3 9.1 C 0 km/h
131 19-04-2021 10:50:00 9 C 8.38 g/m*3 9 C 0 km/h
132 19-04-2021 10:55:00 9 C 8.38 g/m*3 9 C 0 km/h
133 19-04-2021 11:00:00 9 C 8.38 g/m*3 9 C 1.6 km/h
134 19-04-2021 11:05:00 9.1 C 8.43 g/m*3 9.1 C 1.6 km/h
135 19-04-2021 11:10:00 9.2 C 8.48 g/m*3 9.2 C 3.2 km/h
136 19-04-2021 11:15:00 9.3 C 8.54 g/m*3 9.3 C 1.6 km/h
137 19-04-2021 11:20:00 9.3 C 8.45 g/m*3 9.3 C 1.6 km/h
138 19-04-2021 11:25:00 9.5 C 8.56 g/m*3 9.5 C 4.8 km/h
139 19-04-2021 11:30:00 9.7 C 8.67 g/m*3 9.7 C 0 km/h
140 19-04-2021 11:35:00 9.9 C 8.78 g/m*3 9.9 C 1.6 km/h
141 19-04-2021 11:40:00 9.9 C 8.59 g/m*3 9.9 C 4.8 km/h
142 19-04-2021 11:45:00 9.9 C 8.5 g/m*3 9.9 C 3.2 km/h
143 19-04-2021 11:50:00 10.1 C 8.61 g/m*3 10.1 C 3.2 km/h
144 19-04-2021 11:55:00 10.2 C 8.66 g/m*3 10.2 C 1.6 km/h
145 19-04-2021 12:00:00 10.2 C 8.47 g/m*3 10.2 C 3.2 km/h
146 19-04-2021 12:05:00 10.2 C 8.47 g/m*3 10.2 C 3.2 km/h
147 19-04-2021 12:10:00 10.2 C 8.37 g/m*3 10.2 C 3.2 km/h
148 19-04-2021 12:15:00 10.4 C 8.48 g/m*3 9.83 C 6.4 km/h
149 19-04-2021 12:20:00 10.6 C 8.49 g/m*3 10.6 C 4.8 km/h
150 19-04-2021 12:25:00 10.9 C 8.65 g/m*3 10.9 C 3.2 km/h
Sensor: Nr:Datum:Temp:Abs-Feuchte:Windchill:Wind:
Aussen-T/F 151 19-04-2021 12:30:00 11.2 C 8.62 g/m*3 11.2 C 4.8 km/h
152 19-04-2021 12:35:00 11.5 C 8.78 g/m*3 11.5 C 4.8 km/h
153 19-04-2021 12:40:00 11.9 C 8.79 g/m*3 11.9 C 8.1 km/h
154 19-04-2021 12:45:00 12.1 C 8.69 g/m*3 12.1 C 6.4 km/h
155 19-04-2021 12:50:00 12.1 C 8.47 g/m*3 12.1 C 4.8 km/h
156 19-04-2021 12:55:00 12 C 8.31 g/m*3 12 C 1.6 km/h
157 19-04-2021 13:00:00 11.9 C 8.15 g/m*3 11.9 C 3.2 km/h
158 19-04-2021 13:05:00 11.8 C 8.21 g/m*3 11.8 C 0 km/h
159 19-04-2021 13:10:00 11.8 C 8.1 g/m*3 11.8 C 4.8 km/h
160 19-04-2021 13:15:00 11.9 C 8.26 g/m*3 11.9 C 3.2 km/h
161 19-04-2021 13:20:00 12.1 C 8.36 g/m*3 12.1 C 6.4 km/h
162 19-04-2021 13:25:00 12.3 C 8.69 g/m*3 12.3 C 6.4 km/h
163 19-04-2021 13:30:00 12.4 C 8.3 g/m*3 12.4 C 8.1 km/h
164 19-04-2021 13:35:00 12.4 C 8.19 g/m*3 12.4 C 3.2 km/h
165 19-04-2021 13:40:00 12.5 C 8.14 g/m*3 12.5 C 4.8 km/h
166 19-04-2021 13:45:00 12.4 C 8.19 g/m*3 12.4 C 6.4 km/h
167 19-04-2021 13:50:00 12.4 C 8.19 g/m*3 12.4 C 3.2 km/h
168 19-04-2021 13:55:00 12.3 C 8.04 g/m*3 12.3 C 4.8 km/h
169 19-04-2021 14:00:00 12.4 C 8.09 g/m*3 12.4 C 4.8 km/h
170 19-04-2021 14:05:00 12.6 C 8.3 g/m*3 12.6 C 3.2 km/h
171 19-04-2021 14:10:00 12.7 C 8.13 g/m*3 12.7 C 4.8 km/h
172 19-04-2021 14:15:00 12.8 C 7.95 g/m*3 12.8 C 4.8 km/h
173 19-04-2021 14:20:00 12.8 C 7.95 g/m*3 12.8 C 4.8 km/h
174 19-04-2021 14:25:00 12.7 C 7.9 g/m*3 12.7 C 6.4 km/h
175 19-04-2021 14:30:00 12.8 C 7.95 g/m*3 12.8 C 4.8 km/h
Sensor: Nr:Datum:Temp:Abs-Feuchte:Windchill:Wind:
Aussen-T/F 176 19-04-2021 14:35:00 12.8 C 7.95 g/m*3 12.8 C 1.6 km/h
177 19-04-2021 14:40:00 12.9 C 7.78 g/m*3 12.9 C 3.2 km/h
178 19-04-2021 14:45:00 13.1 C 7.76 g/m*3 13.1 C 4.8 km/h
179 19-04-2021 14:50:00 13.2 C 7.92 g/m*3 13.2 C 3.2 km/h
180 19-04-2021 14:55:00 13.3 C 7.97 g/m*3 13.3 C 3.2 km/h
181 19-04-2021 15:00:00 13.3 C 7.86 g/m*3 13.3 C 3.2 km/h
182 19-04-2021 15:05:00 13.4 C 7.79 g/m*3 13.4 C 6.4 km/h
183 19-04-2021 15:10:00 13.3 C 7.51 g/m*3 13.3 C 4.8 km/h
184 19-04-2021 15:15:00 13.3 C 7.51 g/m*3 13.3 C 3.2 km/h
185 19-04-2021 15:20:00 13.4 C 7.79 g/m*3 13.4 C 6.4 km/h
186 19-04-2021 15:25:00 13.5 C 7.72 g/m*3 13.5 C 3.2 km/h
187 19-04-2021 15:30:00 13.6 C 7.77 g/m*3 13.6 C 0 km/h
188 19-04-2021 15:35:00 13.6 C 7.53 g/m*3 13.6 C 8.1 km/h
189 19-04-2021 15:40:00 13.6 C 7.65 g/m*3 13.6 C 0 km/h
190 19-04-2021 15:45:00 13.6 C 7.65 g/m*3 13.6 C 3.2 km/h
191 19-04-2021 15:50:00 13.8 C 7.74 g/m*3 13.8 C 3.2 km/h
192 19-04-2021 15:55:00 14.3 C 7.99 g/m*3 14.3 C 0 km/h
193 19-04-2021 16:00:00 14.9 C 8.03 g/m*3 14.9 C 6.4 km/h
194 19-04-2021 16:05:00 15.2 C 7.66 g/m*3 15.2 C 9.7 km/h
195 19-04-2021 16:10:00 15 C 7.82 g/m*3 15 C 4.8 km/h
196 19-04-2021 16:15:00 14.7 C 7.43 g/m*3 14.7 C 9.7 km/h
197 19-04-2021 16:20:00 14.3 C 7.49 g/m*3 14.3 C 8.1 km/h
198 19-04-2021 16:25:00 14.1 C 7.28 g/m*3 14.1 C 6.4 km/h
199 19-04-2021 16:30:00 13.9 C 7.31 g/m*3 13.9 C 8.1 km/h
200 19-04-2021 16:35:00 13.8 C 7.39 g/m*3 13.8 C 6.4 km/h
Sensor: Nr:Datum:Temp:Abs-Feuchte:Windchill:Wind:
Aussen-T/F 201 19-04-2021 16:40:00 13.8 C 7.39 g/m*3 13.8 C 6.4 km/h
202 19-04-2021 16:45:00 13.9 C 7.31 g/m*3 13.9 C 1.6 km/h
203 19-04-2021 16:50:00 14.3 C 7.37 g/m*3 14.3 C 6.4 km/h
204 19-04-2021 16:55:00 14.8 C 7.35 g/m*3 14.8 C 4.8 km/h
205 19-04-2021 17:00:00 15.4 C 7.62 g/m*3 15.4 C 4.8 km/h
206 19-04-2021 17:05:00 15.6 C 7.58 g/m*3 15.6 C 3.2 km/h
207 19-04-2021 17:10:00 15.8 C 7.4 g/m*3 15.8 C 4.8 km/h
208 19-04-2021 17:15:00 16.1 C 7.26 g/m*3 16.1 C 8.1 km/h
209 19-04-2021 17:20:00 16.1 C 7.4 g/m*3 16.1 C 6.4 km/h
210 19-04-2021 17:25:00 16.3 C 7.49 g/m*3 16.3 C 8.1 km/h
211 19-04-2021 17:30:00 16.4 C 7.54 g/m*3 16.4 C 6.4 km/h
212 19-04-2021 17:35:00 16.6 C 7.49 g/m*3 16.6 C 8.1 km/h
213 19-04-2021 17:40:00 16.7 C 7.67 g/m*3 16.7 C 8.1 km/h
214 19-04-2021 17:45:00 16.8 C 7.58 g/m*3 16.8 C 6.4 km/h
215 19-04-2021 17:50:00 17.1 C 7.57 g/m*3 17.1 C 8.1 km/h
216 19-04-2021 17:55:00 16.9 C 7.34 g/m*3 16.9 C 12.9 km/h
217 19-04-2021 18:00:00 16.6 C 7.06 g/m*3 16.6 C 12.9 km/h
218 19-04-2021 18:05:00 16.3 C 7.35 g/m*3 16.3 C 11.3 km/h
219 19-04-2021 18:10:00 16.2 C 7.31 g/m*3 16.2 C 11.3 km/h
220 19-04-2021 18:15:00 16.3 C 7.35 g/m*3 16.3 C 6.4 km/h
221 19-04-2021 18:20:00 16.3 C 7.21 g/m*3 16.3 C 6.4 km/h
222 19-04-2021 18:25:00 16 C 7.63 g/m*3 16 C 11.3 km/h
223 19-04-2021 18:30:00 15.8 C 7.81 g/m*3 15.8 C 11.3 km/h
224 19-04-2021 18:35:00 15.6 C 7.58 g/m*3 15.6 C 9.7 km/h
225 19-04-2021 18:40:00 15.3 C 7.44 g/m*3 15.3 C 8.1 km/h
Sensor: Nr:Datum:Temp:Abs-Feuchte:Windchill:Wind:
Aussen-T/F 226 19-04-2021 18:45:00 15 C 7.44 g/m*3 15 C 6.4 km/h
227 19-04-2021 18:50:00 14.9 C 7.65 g/m*3 14.9 C 4.8 km/h
228 19-04-2021 18:55:00 14.9 C 7.65 g/m*3 14.9 C 9.7 km/h
229 19-04-2021 19:00:00 14.9 C 7.65 g/m*3 14.9 C 8.1 km/h
230 19-04-2021 19:05:00 14.9 C 7.9 g/m*3 14.9 C 3.2 km/h
231 19-04-2021 19:10:00 14.9 C 7.9 g/m*3 14.9 C 9.7 km/h
232 19-04-2021 19:15:00 14.7 C 7.93 g/m*3 14.7 C 4.8 km/h
233 19-04-2021 19:20:00 14.4 C 7.91 g/m*3 14.4 C 8.1 km/h
234 19-04-2021 19:25:00 14.2 C 7.94 g/m*3 14.2 C 6.4 km/h
235 19-04-2021 19:30:00 13.9 C 7.79 g/m*3 13.9 C 6.4 km/h
236 19-04-2021 19:35:00 13.7 C 7.82 g/m*3 13.7 C 0 km/h
237 19-04-2021 19:40:00 13.6 C 7.89 g/m*3 13.6 C 1.6 km/h
238 19-04-2021 19:45:00 13.4 C 7.9 g/m*3 13.4 C 4.8 km/h
239 19-04-2021 19:50:00 13.3 C 8.09 g/m*3 13.3 C 1.6 km/h
240 19-04-2021 19:55:00 13.1 C 8.22 g/m*3 13.1 C 1.6 km/h
241 19-04-2021 20:00:00 12.8 C 8.29 g/m*3 12.8 C 0 km/h
242 19-04-2021 20:05:00 12.6 C 8.19 g/m*3 12.6 C 3.2 km/h
243 19-04-2021 20:10:00 12.2 C 8.09 g/m*3 12.2 C 0 km/h
244 19-04-2021 20:15:00 11.9 C 8.05 g/m*3 11.9 C 0 km/h
245 19-04-2021 20:20:00 11.6 C 8 g/m*3 11.6 C 4.8 km/h
246 19-04-2021 20:25:00 11.3 C 7.85 g/m*3 11.3 C 3.2 km/h
247 19-04-2021 20:30:00 11.2 C 8.01 g/m*3 11.2 C 6.4 km/h
248 19-04-2021 20:35:00 10.9 C 7.86 g/m*3 10.9 C 3.2 km/h
249 19-04-2021 20:40:00 10.8 C 7.91 g/m*3 10.8 C 4.8 km/h
250 19-04-2021 20:45:00 10.6 C 7.91 g/m*3 10.6 C 3.2 km/h
Sensor: Nr:Datum:Temp:Abs-Feuchte:Windchill:Wind:
Aussen-T/F 251 19-04-2021 20:50:00 10.4 C 7.81 g/m*3 10.4 C 4.8 km/h
252 19-04-2021 20:55:00 10.2 C 7.8 g/m*3 10.2 C 4.8 km/h
253 19-04-2021 21:00:00 10.2 C 7.9 g/m*3 10.2 C 4.8 km/h
254 19-04-2021 21:05:00 10.1 C 7.94 g/m*3 10.1 C 3.2 km/h
255 19-04-2021 21:10:00 10 C 7.89 g/m*3 10 C 3.2 km/h
256 19-04-2021 21:15:00 9.9 C 7.94 g/m*3 9.9 C 4.8 km/h
257 19-04-2021 21:20:00 9.8 C 7.89 g/m*3 9.8 C 3.2 km/h
258 19-04-2021 21:25:00 9.8 C 7.89 g/m*3 9.8 C 3.2 km/h
259 19-04-2021 21:30:00 9.8 C 7.89 g/m*3 9.8 C 3.2 km/h
260 19-04-2021 21:35:00 9.7 C 7.93 g/m*3 9.7 C 3.2 km/h
261 19-04-2021 21:40:00 9.7 C 7.93 g/m*3 9.7 C 3.2 km/h
262 19-04-2021 21:45:00 9.6 C 7.88 g/m*3 9.6 C 0 km/h
263 19-04-2021 21:50:00 9.6 C 7.88 g/m*3 9.6 C 1.6 km/h
264 19-04-2021 21:55:00 9.5 C 7.83 g/m*3 9.5 C 0 km/h
265 19-04-2021 22:00:00 9.4 C 7.78 g/m*3 9.4 C 0 km/h
266 19-04-2021 22:05:00 9.2 C 7.68 g/m*3 9.2 C 0 km/h
267 19-04-2021 22:10:00 9.1 C 7.72 g/m*3 9.1 C 1.6 km/h
268 19-04-2021 22:15:00 9 C 7.58 g/m*3 9 C 0 km/h
269 19-04-2021 22:20:00 8.8 C 7.57 g/m*3 8.8 C 0 km/h
270 19-04-2021 22:25:00 8.7 C 7.52 g/m*3 8.7 C 0 km/h
271 19-04-2021 22:30:00 8.7 C 7.52 g/m*3 8.7 C 0 km/h
272 19-04-2021 22:35:00 8.6 C 7.56 g/m*3 8.6 C 0 km/h
273 19-04-2021 22:40:00 8.5 C 7.51 g/m*3 8.5 C 0 km/h
274 19-04-2021 22:45:00 8.4 C 7.47 g/m*3 8.4 C 0 km/h
275 19-04-2021 22:50:00 8.3 C 7.42 g/m*3 8.3 C 0 km/h
Sensor: Nr:Datum:Temp:Abs-Feuchte:Windchill:Wind:
Aussen-T/F 276 19-04-2021 22:55:00 8.2 C 7.37 g/m*3 8.2 C 0 km/h
277 19-04-2021 23:00:00 8.1 C 7.32 g/m*3 8.1 C 1.6 km/h
278 19-04-2021 23:05:00 7.9 C 7.23 g/m*3 7.9 C 0 km/h
279 19-04-2021 23:10:00 7.8 C 7.18 g/m*3 7.8 C 0 km/h
280 19-04-2021 23:15:00 7.8 C 7.18 g/m*3 7.8 C 0 km/h
281 19-04-2021 23:20:00 7.6 C 7.09 g/m*3 7.6 C 0 km/h
282 19-04-2021 23:25:00 7.5 C 7.04 g/m*3 7.5 C 0 km/h
283 19-04-2021 23:30:00 7.3 C 7.03 g/m*3 7.3 C 0 km/h
284 19-04-2021 23:35:00 7.2 C 6.99 g/m*3 7.2 C 0 km/h
285 19-04-2021 23:40:00 7.1 C 6.94 g/m*3 7.1 C 0 km/h
286 19-04-2021 23:45:00 6.9 C 6.85 g/m*3 6.9 C 0 km/h
287 19-04-2021 23:50:00 6.8 C 6.81 g/m*3 6.8 C 0 km/h
288 19-04-2021 23:55:00 6.7 C 6.76 g/m*3 6.7 C 0 km/h
289 20-04-2021 00:00:00 6.6 C 6.72 g/m*3 6.6 C 0 km/h
290 20-04-2021 00:05:00 6.5 C 6.75 g/m*3 6.5 C 0 km/h
291 20-04-2021 00:10:00 6.3 C 6.66 g/m*3 6.3 C 0 km/h
292 20-04-2021 00:15:00 6.2 C 6.62 g/m*3 6.2 C 0 km/h
293 20-04-2021 00:20:00 6.1 C 6.58 g/m*3 6.1 C 0 km/h
294 20-04-2021 00:25:00 6 C 6.6 g/m*3 6 C 0 km/h
295 20-04-2021 00:30:00 5.9 C 6.56 g/m*3 5.9 C 0 km/h
296 20-04-2021 00:35:00 5.8 C 6.52 g/m*3 5.8 C 0 km/h
297 20-04-2021 00:40:00 5.7 C 6.48 g/m*3 5.7 C 0 km/h
298 20-04-2021 00:45:00 5.6 C 6.43 g/m*3 5.6 C 0 km/h
299 20-04-2021 00:50:00 5.5 C 6.39 g/m*3 5.5 C 0 km/h
300 20-04-2021 00:55:00 5.4 C 6.42 g/m*3 5.4 C 0 km/h
Sensor: Nr:Datum:Temp:Abs-Feuchte:Windchill:Wind:
Aussen-T/F 301 20-04-2021 01:00:00 5.3 C 6.38 g/m*3 5.3 C 0 km/h
302 20-04-2021 01:05:00 5.3 C 6.38 g/m*3 5.3 C 0 km/h
303 20-04-2021 01:10:00 5.2 C 6.33 g/m*3 5.2 C 0 km/h
304 20-04-2021 01:15:00 5.1 C 6.29 g/m*3 5.1 C 0 km/h
305 20-04-2021 01:20:00 5.1 C 6.29 g/m*3 5.1 C 0 km/h
306 20-04-2021 01:25:00 5 C 6.25 g/m*3 5 C 0 km/h
307 20-04-2021 01:30:00 4.9 C 6.21 g/m*3 4.9 C 0 km/h
308 20-04-2021 01:35:00 4.9 C 6.21 g/m*3 4.9 C 0 km/h
309 20-04-2021 01:40:00 4.8 C 6.17 g/m*3 4.8 C 0 km/h
310 20-04-2021 01:45:00 4.8 C 6.24 g/m*3 4.8 C 0 km/h
311 20-04-2021 01:50:00 4.8 C 6.24 g/m*3 4.8 C 0 km/h
312 20-04-2021 01:55:00 4.8 C 6.24 g/m*3 4.8 C 0 km/h
313 20-04-2021 02:00:00 4.8 C 6.24 g/m*3 4.8 C 0 km/h
314 20-04-2021 02:05:00 4.7 C 6.19 g/m*3 4.7 C 0 km/h
315 20-04-2021 02:10:00 4.6 C 6.15 g/m*3 4.6 C 0 km/h
316 20-04-2021 02:15:00 4.6 C 6.15 g/m*3 4.6 C 0 km/h
317 20-04-2021 02:20:00 4.6 C 6.15 g/m*3 4.6 C 0 km/h
318 20-04-2021 02:25:00 4.5 C 6.11 g/m*3 4.5 C 0 km/h
319 20-04-2021 02:30:00 4.5 C 6.11 g/m*3 4.5 C 0 km/h
320 20-04-2021 02:35:00 4.5 C 6.18 g/m*3 4.5 C 0 km/h
321 20-04-2021 02:40:00 4.5 C 6.18 g/m*3 4.5 C 0 km/h
322 20-04-2021 02:45:00 4.4 C 6.14 g/m*3 4.4 C 0 km/h
323 20-04-2021 02:50:00 4.3 C 6.1 g/m*3 4.3 C 0 km/h
324 20-04-2021 02:55:00 4.2 C 6.06 g/m*3 4.2 C 0 km/h
325 20-04-2021 03:00:00 4.2 C 6.06 g/m*3 4.2 C 0 km/h
Sensor: Nr:Datum:Temp:Abs-Feuchte:Windchill:Wind:
Aussen-T/F 326 20-04-2021 03:05:00 4.2 C 6.06 g/m*3 4.2 C 0 km/h
327 20-04-2021 03:10:00 4.1 C 6.02 g/m*3 4.1 C 0 km/h
328 20-04-2021 03:15:00 4 C 5.98 g/m*3 4 C 0 km/h
329 20-04-2021 03:20:00 4 C 5.98 g/m*3 4 C 0 km/h
330 20-04-2021 03:25:00 4 C 5.98 g/m*3 4 C 0 km/h
331 20-04-2021 03:30:00 3.9 C 5.94 g/m*3 3.9 C 0 km/h
332 20-04-2021 03:35:00 3.8 C 5.9 g/m*3 3.8 C 0 km/h
333 20-04-2021 03:40:00 3.8 C 5.9 g/m*3 3.8 C 0 km/h
334 20-04-2021 03:45:00 3.8 C 5.9 g/m*3 3.8 C 0 km/h
335 20-04-2021 03:50:00 3.7 C 5.86 g/m*3 3.7 C 0 km/h
336 20-04-2021 03:55:00 3.7 C 5.86 g/m*3 3.7 C 0 km/h
337 20-04-2021 04:00:00 3.7 C 5.86 g/m*3 3.7 C 1.6 km/h
338 20-04-2021 04:05:00 3.7 C 5.86 g/m*3 3.7 C 1.6 km/h
339 20-04-2021 04:10:00 3.7 C 5.86 g/m*3 3.7 C 0 km/h
340 20-04-2021 04:15:00 3.6 C 5.82 g/m*3 3.6 C 0 km/h
341 20-04-2021 04:20:00 3.5 C 5.78 g/m*3 3.5 C 0 km/h
342 20-04-2021 04:25:00 3.3 C 5.7 g/m*3 3.3 C 0 km/h
343 20-04-2021 04:30:00 3.2 C 5.66 g/m*3 3.2 C 0 km/h
344 20-04-2021 04:35:00 3.1 C 5.63 g/m*3 3.1 C 0 km/h
345 20-04-2021 04:40:00 3.1 C 5.63 g/m*3 3.1 C 0 km/h
346 20-04-2021 04:45:00 3 C 5.59 g/m*3 3 C 0 km/h
347 20-04-2021 04:50:00 2.9 C 5.55 g/m*3 2.9 C 0 km/h
348 20-04-2021 04:55:00 3 C 5.65 g/m*3 3 C 0 km/h
349 20-04-2021 05:00:00 2.9 C 5.61 g/m*3 2.9 C 0 km/h
350 20-04-2021 05:05:00 2.9 C 5.55 g/m*3 2.9 C 0 km/h
Sensor: Nr:Datum:Temp:Abs-Feuchte:Windchill:Wind:
Aussen-T/F 351 20-04-2021 05:10:00 2.8 C 5.57 g/m*3 2.8 C 0 km/h
352 20-04-2021 05:15:00 2.7 C 5.48 g/m*3 2.7 C 0 km/h
353 20-04-2021 05:20:00 2.7 C 5.48 g/m*3 2.7 C 0 km/h
354 20-04-2021 05:25:00 2.7 C 5.54 g/m*3 2.7 C 0 km/h
355 20-04-2021 05:30:00 2.7 C 5.54 g/m*3 2.7 C 0 km/h
356 20-04-2021 05:35:00 2.6 C 5.5 g/m*3 2.6 C 0 km/h
357 20-04-2021 05:40:00 2.6 C 5.5 g/m*3 2.6 C 0 km/h
358 20-04-2021 05:45:00 2.5 C 5.46 g/m*3 2.5 C 0 km/h
359 20-04-2021 05:50:00 2.6 C 5.5 g/m*3 2.6 C 0 km/h
360 20-04-2021 05:55:00 2.6 C 5.5 g/m*3 2.6 C 0 km/h
361 20-04-2021 06:00:00 2.5 C 5.46 g/m*3 2.5 C 0 km/h
362 20-04-2021 06:05:00 2.6 C 5.5 g/m*3 2.6 C 0 km/h
363 20-04-2021 06:10:00 2.6 C 5.5 g/m*3 2.6 C 0 km/h
364 20-04-2021 06:15:00 2.4 C 5.42 g/m*3 2.4 C 0 km/h
365 20-04-2021 06:20:00 2.3 C 5.39 g/m*3 2.3 C 0 km/h
366 20-04-2021 06:25:00 2.3 C 5.39 g/m*3 2.3 C 0 km/h
367 20-04-2021 06:30:00 2.2 C 5.35 g/m*3 2.2 C 0 km/h
368 20-04-2021 06:35:00 2.1 C 5.31 g/m*3 2.1 C 0 km/h
369 20-04-2021 06:40:00 2.1 C 5.31 g/m*3 2.1 C 0 km/h
370 20-04-2021 06:45:00 2.1 C 5.31 g/m*3 2.1 C 0 km/h
371 20-04-2021 06:50:00 2.1 C 5.31 g/m*3 2.1 C 0 km/h
372 20-04-2021 06:55:00 2.1 C 5.31 g/m*3 2.1 C 0 km/h
373 20-04-2021 07:00:00 2.2 C 5.35 g/m*3 2.2 C 0 km/h
374 20-04-2021 07:05:00 2.2 C 5.35 g/m*3 2.2 C 0 km/h
375 20-04-2021 07:10:00 2.3 C 5.39 g/m*3 2.3 C 0 km/h
Sensor: Nr:Datum:Temp:Abs-Feuchte:Windchill:Wind:
Aussen-T/F 376 20-04-2021 07:15:00 2.3 C 5.39 g/m*3 2.3 C 0 km/h
377 20-04-2021 07:20:00 2.5 C 5.52 g/m*3 2.5 C 0 km/h
378 20-04-2021 07:25:00 2.7 C 5.59 g/m*3 2.7 C 0 km/h
379 20-04-2021 07:30:00 2.8 C 5.63 g/m*3 2.8 C 0 km/h
380 20-04-2021 07:35:00 2.9 C 5.67 g/m*3 2.9 C 0 km/h
381 20-04-2021 07:40:00 2.9 C 5.67 g/m*3 2.9 C 0 km/h
382 20-04-2021 07:45:00 2.9 C 5.67 g/m*3 2.9 C 0 km/h
383 20-04-2021 07:50:00 2.9 C 5.67 g/m*3 2.9 C 0 km/h
384 20-04-2021 07:55:00 2.9 C 5.67 g/m*3 2.9 C 0 km/h
385 20-04-2021 08:00:00 2.9 C 5.67 g/m*3 2.9 C 0 km/h
386 20-04-2021 08:05:00 3 C 5.71 g/m*3 3 C 0 km/h
387 20-04-2021 08:10:00 3.1 C 5.75 g/m*3 3.1 C 0 km/h
388 20-04-2021 08:15:00 3.2 C 5.79 g/m*3 3.2 C 0 km/h
389 20-04-2021 08:20:00 3.2 C 5.79 g/m*3 3.2 C 0 km/h
390 20-04-2021 08:25:00 3.3 C 5.82 g/m*3 3.3 C 0 km/h
391 20-04-2021 08:30:00 3.3 C 5.82 g/m*3 3.3 C 1.6 km/h
392 20-04-2021 08:35:00 3.5 C 5.9 g/m*3 3.5 C 1.6 km/h
393 20-04-2021 08:40:00 3.7 C 5.98 g/m*3 3.7 C 3.2 km/h
394 20-04-2021 08:45:00 3.8 C 6.02 g/m*3 3.8 C 3.2 km/h
395 20-04-2021 08:50:00 3.9 C 6.06 g/m*3 3.9 C 0 km/h
396 20-04-2021 08:55:00 4.1 C 6.14 g/m*3 4.1 C 1.6 km/h
397 20-04-2021 09:00:00 4.2 C 6.19 g/m*3 4.2 C 0 km/h
398 20-04-2021 09:05:00 4.3 C 6.23 g/m*3 4.3 C 0 km/h
399 20-04-2021 09:10:00 4.3 C 6.23 g/m*3 4.3 C 0 km/h
400 20-04-2021 09:15:00 4.4 C 6.27 g/m*3 4.4 C 1.6 km/h
Sensor: Nr:Datum:Temp:Abs-Feuchte:Windchill:Wind:
Aussen-T/F 401 20-04-2021 09:20:00 4.5 C 6.31 g/m*3 4.5 C 3.2 km/h
402 20-04-2021 09:25:00 4.6 C 6.35 g/m*3 4.6 C 0 km/h
403 20-04-2021 09:30:00 4.6 C 6.35 g/m*3 4.6 C 0 km/h
404 20-04-2021 09:35:00 4.7 C 6.39 g/m*3 4.7 C 0 km/h
405 20-04-2021 09:40:00 4.9 C 6.48 g/m*3 4.9 C 0 km/h
406 20-04-2021 09:45:00 5.1 C 6.63 g/m*3 5.1 C 0 km/h
407 20-04-2021 09:50:00 5.3 C 6.72 g/m*3 5.3 C 1.6 km/h
408 20-04-2021 09:55:00 5.7 C 6.9 g/m*3 5.7 C 1.6 km/h
409 20-04-2021 10:00:00 5.8 C 6.95 g/m*3 5.8 C 0 km/h
410 20-04-2021 10:05:00 6 C 7.04 g/m*3 6 C 0 km/h
411 20-04-2021 10:10:00 6.2 C 7.13 g/m*3 6.2 C 0 km/h
412 20-04-2021 10:15:00 6.4 C 7.23 g/m*3 6.4 C 0 km/h
413 20-04-2021 10:20:00 6.8 C 7.42 g/m*3 6.8 C 0 km/h
414 20-04-2021 10:25:00 7.1 C 7.57 g/m*3 7.1 C 1.6 km/h
415 20-04-2021 10:30:00 7.4 C 7.71 g/m*3 7.4 C 0 km/h
416 20-04-2021 10:35:00 7.6 C 7.81 g/m*3 7.6 C 0 km/h
417 20-04-2021 10:40:00 7.8 C 7.92 g/m*3 7.8 C 0 km/h
418 20-04-2021 10:45:00 8.1 C 8.07 g/m*3 8.1 C 0 km/h
419 20-04-2021 10:50:00 8.3 C 8.18 g/m*3 8.3 C 0 km/h
420 20-04-2021 10:55:00 8.7 C 8.3 g/m*3 8.7 C 0 km/h
421 20-04-2021 11:00:00 9.1 C 8.43 g/m*3 9.1 C 0 km/h
422 20-04-2021 11:05:00 9.3 C 8.45 g/m*3 9.3 C 0 km/h
423 20-04-2021 11:10:00 9.6 C 8.43 g/m*3 9.6 C 0 km/h
424 20-04-2021 11:15:00 9.8 C 8.35 g/m*3 9.8 C 0 km/h
425 20-04-2021 11:20:00 10.2 C 8.37 g/m*3 10.2 C 0 km/h
Sensor: Nr:Datum:Temp:Abs-Feuchte:Windchill:Wind:
Aussen-T/F 426 20-04-2021 11:25:00 10.6 C 8.39 g/m*3 10.6 C 0 km/h
427 20-04-2021 11:30:00 11 C 8.51 g/m*3 11 C 0 km/h
428 20-04-2021 11:35:00 11.3 C 8.57 g/m*3 11.3 C 0 km/h
429 20-04-2021 11:40:00 11.7 C 8.37 g/m*3 11.7 C 0 km/h
430 20-04-2021 11:45:00 12.1 C 8.47 g/m*3 12.1 C 0 km/h
431 20-04-2021 11:50:00 12.4 C 8.3 g/m*3 12.4 C 0 km/h
432 20-04-2021 11:55:00 12.8 C 7.84 g/m*3 12.8 C 0 km/h
433 20-04-2021 12:00:00 13 C 8.17 g/m*3 13 C 0 km/h
434 20-04-2021 12:05:00 13.1 C 7.99 g/m*3 13.1 C 0 km/h
435 20-04-2021 12:10:00 13.3 C 7.86 g/m*3 13.3 C 0 km/h
436 20-04-2021 12:15:00 13.6 C 7.77 g/m*3 13.6 C 0 km/h
437 20-04-2021 12:20:00 13.8 C 7.74 g/m*3 13.8 C 0 km/h
438 20-04-2021 12:25:00 14.1 C 7.52 g/m*3 14.1 C 8.1 km/h
439 20-04-2021 12:30:00 14.3 C 7.49 g/m*3 14.3 C 8.1 km/h
440 20-04-2021 12:35:00 14.3 C 7.25 g/m*3 14.3 C 6.4 km/h
441 20-04-2021 12:40:00 14.3 C 7.37 g/m*3 14.3 C 4.8 km/h
442 20-04-2021 12:45:00 14.4 C 7.29 g/m*3 14.4 C 6.4 km/h
443 20-04-2021 12:50:00 14.4 C 7.17 g/m*3 14.4 C 1.6 km/h
444 20-04-2021 12:55:00 14.4 C 7.29 g/m*3 14.4 C 0 km/h
445 20-04-2021 13:00:00 14.6 C 7.38 g/m*3 14.6 C 4.8 km/h
446 20-04-2021 13:05:00 14.8 C 7.6 g/m*3 14.8 C 0 km/h
447 20-04-2021 13:10:00 15.1 C 7.61 g/m*3 15.1 C 0 km/h
448 20-04-2021 13:15:00 15.2 C 7.53 g/m*3 15.2 C 3.2 km/h
449 20-04-2021 13:20:00 15.2 C 7.53 g/m*3 15.2 C 8.1 km/h
450 20-04-2021 13:25:00 15.2 C 7.53 g/m*3 15.2 C 9.7 km/h
Sensor: Nr:Datum:Temp:Abs-Feuchte:Windchill:Wind:
Aussen-T/F 451 20-04-2021 13:30:00 15.4 C 7.36 g/m*3 15.4 C 4.8 km/h
452 20-04-2021 13:35:00 15.5 C 7.67 g/m*3 15.5 C 9.7 km/h
453 20-04-2021 13:40:00 15.6 C 7.45 g/m*3 15.6 C 4.8 km/h
454 20-04-2021 13:45:00 15.6 C 7.58 g/m*3 15.6 C 6.4 km/h
455 20-04-2021 13:50:00 15.4 C 7.36 g/m*3 15.4 C 4.8 km/h
456 20-04-2021 13:55:00 15.4 C 7.62 g/m*3 15.4 C 0 km/h
457 20-04-2021 14:00:00 15.5 C 7.53 g/m*3 15.5 C 6.4 km/h
458 20-04-2021 14:05:00 15.6 C 7.31 g/m*3 15.6 C 4.8 km/h
459 20-04-2021 14:10:00 15.7 C 7.49 g/m*3 15.7 C 1.6 km/h
460 20-04-2021 14:15:00 15.7 C 7.49 g/m*3 15.7 C 0 km/h
461 20-04-2021 14:20:00 15.6 C 7.18 g/m*3 15.6 C 0 km/h
462 20-04-2021 14:25:00 15.6 C 7.31 g/m*3 15.6 C 0 km/h
463 20-04-2021 14:30:00 15.5 C 7.4 g/m*3 15.5 C 0 km/h
464 20-04-2021 14:35:00 15.5 C 7.27 g/m*3 15.5 C 0 km/h
465 20-04-2021 14:40:00 15.6 C 7.58 g/m*3 15.6 C 0 km/h
466 20-04-2021 14:45:00 15.7 C 7.36 g/m*3 15.7 C 0 km/h
467 20-04-2021 14:50:00 16 C 7.22 g/m*3 16 C 0 km/h
468 20-04-2021 14:55:00 16.3 C 7.35 g/m*3 16.3 C 0 km/h
469 20-04-2021 15:00:00 16.8 C 7.43 g/m*3 16.8 C 8.1 km/h
470 20-04-2021 15:05:00 16.9 C 7.34 g/m*3 16.9 C 8.1 km/h
471 20-04-2021 15:10:00 16.9 C 7.62 g/m*3 16.9 C 1.6 km/h
472 20-04-2021 15:15:00 16.8 C 7.43 g/m*3 16.8 C 4.8 km/h
473 20-04-2021 15:20:00 16.8 C 7.58 g/m*3 16.8 C 4.8 km/h
474 20-04-2021 15:25:00 16.7 C 7.11 g/m*3 16.7 C 4.8 km/h
475 20-04-2021 15:30:00 16.6 C 7.35 g/m*3 16.6 C 0 km/h
Sensor: Nr:Datum:Temp:Abs-Feuchte:Windchill:Wind:
Aussen-T/F 476 20-04-2021 15:35:00 16.6 C 7.49 g/m*3 16.6 C 0 km/h
477 20-04-2021 15:40:00 16.6 C 7.49 g/m*3 16.6 C 0 km/h
478 20-04-2021 15:45:00 16.7 C 6.82 g/m*3 16.7 C 0 km/h
479 20-04-2021 15:50:00 16.7 C 7.39 g/m*3 16.7 C 4.8 km/h
480 20-04-2021 15:55:00 16.6 C 7.49 g/m*3 16.6 C 1.6 km/h
481 20-04-2021 16:00:00 16.6 C 7.06 g/m*3 16.6 C 3.2 km/h
482 20-04-2021 16:05:00 16.6 C 7.2 g/m*3 16.6 C 0 km/h
483 20-04-2021 16:10:00 16.5 C 7.3 g/m*3 16.5 C 0 km/h
484 20-04-2021 16:15:00 16.5 C 7.3 g/m*3 16.5 C 3.2 km/h
485 20-04-2021 16:20:00 16.4 C 7.12 g/m*3 16.4 C 4.8 km/h
486 20-04-2021 16:25:00 16.4 C 7.12 g/m*3 16.4 C 3.2 km/h
487 20-04-2021 16:30:00 16.4 C 7.4 g/m*3 16.4 C 3.2 km/h
488 20-04-2021 16:35:00 16.3 C 7.21 g/m*3 16.3 C 4.8 km/h
489 20-04-2021 16:40:00 16.3 C 7.21 g/m*3 16.3 C 1.6 km/h
490 20-04-2021 16:45:00 16.3 C 7.21 g/m*3 16.3 C 0 km/h
491 20-04-2021 16:50:00 16.4 C 7.12 g/m*3 16.4 C 0 km/h
492 20-04-2021 16:55:00 16.4 C 7.26 g/m*3 16.4 C 0 km/h
493 20-04-2021 17:00:00 16.5 C 7.16 g/m*3 16.5 C 3.2 km/h
494 20-04-2021 17:05:00 16.5 C 7.3 g/m*3 16.5 C 4.8 km/h
495 20-04-2021 17:10:00 16.6 C 7.2 g/m*3 16.6 C 3.2 km/h
496 20-04-2021 17:15:00 16.6 C 7.35 g/m*3 16.6 C 0 km/h
497 20-04-2021 17:20:00 16.7 C 7.53 g/m*3 16.7 C 0 km/h
498 20-04-2021 17:25:00 16.7 C 7.11 g/m*3 16.7 C 6.4 km/h
499 20-04-2021 17:30:00 16.7 C 7.39 g/m*3 16.7 C 0 km/h
500 20-04-2021 17:35:00 16.7 C 7.39 g/m*3 16.7 C 0 km/h
Sensor: Nr:Datum:Temp:Abs-Feuchte:Windchill:Wind:
Aussen-T/F 501 20-04-2021 17:40:00 16.8 C 7.29 g/m*3 16.8 C 0 km/h
502 20-04-2021 17:45:00 16.9 C 7.48 g/m*3 16.9 C 0 km/h
503 20-04-2021 17:50:00 16.9 C 7.05 g/m*3 16.9 C 4.8 km/h
504 20-04-2021 17:55:00 17.2 C 7.32 g/m*3 17.2 C 0 km/h
505 20-04-2021 18:00:00 17.6 C 7.05 g/m*3 17.6 C 4.8 km/h
506 20-04-2021 18:05:00 18 C 7.22 g/m*3 18 C 3.2 km/h
507 20-04-2021 18:10:00 18.2 C 7.31 g/m*3 18.2 C 4.8 km/h
508 20-04-2021 18:15:00 18.4 C 7.39 g/m*3 18.4 C 3.2 km/h
509 20-04-2021 18:20:00 18.6 C 7 g/m*3 18.6 C 8.1 km/h
510 20-04-2021 18:25:00 18.7 C 7.2 g/m*3 18.7 C 8.1 km/h
511 20-04-2021 18:30:00 18.7 C 7.04 g/m*3 18.7 C 4.8 km/h
512 20-04-2021 18:35:00 18.7 C 7.2 g/m*3 18.7 C 3.2 km/h
513 20-04-2021 18:40:00 18.7 C 6.88 g/m*3 18.7 C 3.2 km/h
514 20-04-2021 18:45:00 18.7 C 6.88 g/m*3 18.7 C 4.8 km/h
515 20-04-2021 18:50:00 18.5 C 7.12 g/m*3 18.5 C 3.2 km/h
516 20-04-2021 18:55:00 18.4 C 7.08 g/m*3 18.4 C 1.6 km/h
517 20-04-2021 19:00:00 18.3 C 7.04 g/m*3 18.3 C 6.4 km/h
518 20-04-2021 19:05:00 18.2 C 6.84 g/m*3 18.2 C 0 km/h
519 20-04-2021 19:10:00 17.9 C 7.02 g/m*3 17.9 C 4.8 km/h
520 20-04-2021 19:15:00 17.8 C 6.68 g/m*3 17.8 C 1.6 km/h
521 20-04-2021 19:20:00 17.6 C 6.9 g/m*3 17.6 C 4.8 km/h
522 20-04-2021 19:25:00 17.5 C 6.71 g/m*3 17.5 C 1.6 km/h
523 20-04-2021 19:30:00 17.3 C 6.63 g/m*3 17.3 C 0 km/h
524 20-04-2021 19:35:00 17.2 C 6.88 g/m*3 17.2 C 0 km/h
525 20-04-2021 19:40:00 17.1 C 7.42 g/m*3 17.1 C 0 km/h
Sensor: Nr:Datum:Temp:Abs-Feuchte:Windchill:Wind:
Aussen-T/F 526 20-04-2021 19:45:00 17.1 C 7.71 g/m*3 17.1 C 0 km/h
527 20-04-2021 19:50:00 16.9 C 7.77 g/m*3 16.9 C 0 km/h
528 20-04-2021 19:55:00 16.8 C 7.72 g/m*3 16.8 C 0 km/h
529 20-04-2021 20:00:00 16.6 C 7.77 g/m*3 16.6 C 0 km/h
530 20-04-2021 20:05:00 16.2 C 7.72 g/m*3 16.2 C 0 km/h
531 20-04-2021 20:10:00 15.8 C 7.54 g/m*3 15.8 C 0 km/h
532 20-04-2021 20:15:00 15.2 C 7.53 g/m*3 15.2 C 3.2 km/h
533 20-04-2021 20:20:00 14.7 C 7.55 g/m*3 14.7 C 4.8 km/h
534 20-04-2021 20:25:00 14.2 C 7.57 g/m*3 14.2 C 6.4 km/h
535 20-04-2021 20:30:00 13.7 C 7.46 g/m*3 13.7 C 4.8 km/h
536 20-04-2021 20:35:00 13.2 C 7.46 g/m*3 13.2 C 6.4 km/h
537 20-04-2021 20:40:00 12.7 C 7.35 g/m*3 12.7 C 6.4 km/h
538 20-04-2021 20:45:00 12.3 C 7.28 g/m*3 12.3 C 3.2 km/h
539 20-04-2021 20:50:00 12.1 C 7.18 g/m*3 12.1 C 6.4 km/h
540 20-04-2021 20:55:00 11.8 C 7.16 g/m*3 11.8 C 6.4 km/h
541 20-04-2021 21:00:00 11.7 C 7.22 g/m*3 11.7 C 6.4 km/h
542 20-04-2021 21:05:00 11.4 C 7.29 g/m*3 11.4 C 6.4 km/h
543 20-04-2021 21:10:00 11.3 C 7.24 g/m*3 11.3 C 8.1 km/h
544 20-04-2021 21:15:00 11.1 C 7.25 g/m*3 11.1 C 6.4 km/h
545 20-04-2021 21:20:00 10.9 C 7.16 g/m*3 10.9 C 4.8 km/h
546 20-04-2021 21:25:00 10.8 C 7.22 g/m*3 10.8 C 0 km/h
547 20-04-2021 21:30:00 10.6 C 7.22 g/m*3 10.6 C 0 km/h
548 20-04-2021 21:35:00 10.4 C 7.23 g/m*3 10.4 C 0 km/h
549 20-04-2021 21:40:00 10.2 C 7.14 g/m*3 10.2 C 0 km/h
550 20-04-2021 21:45:00 10.1 C 7.19 g/m*3 10.1 C 0 km/h
Sensor: Nr:Datum:Temp:Abs-Feuchte:Windchill:Wind:
Aussen-T/F 551 20-04-2021 21:50:00 9.9 C 7.1 g/m*3 9.9 C 0 km/h
552 20-04-2021 21:55:00 9.7 C 7.01 g/m*3 9.7 C 0 km/h
553 20-04-2021 22:00:00 9.6 C 7.05 g/m*3 9.6 C 0 km/h
554 20-04-2021 22:05:00 9.4 C 7.05 g/m*3 9.4 C 0 km/h
555 20-04-2021 22:10:00 9.3 C 7.01 g/m*3 9.3 C 0 km/h
556 20-04-2021 22:15:00 9.1 C 6.92 g/m*3 9.1 C 0 km/h
557 20-04-2021 22:20:00 8.9 C 6.92 g/m*3 8.9 C 0 km/h
558 20-04-2021 22:25:00 8.8 C 6.96 g/m*3 8.8 C 0 km/h
559 20-04-2021 22:30:00 8.7 C 6.92 g/m*3 8.7 C 0 km/h
560 20-04-2021 22:35:00 8.5 C 6.83 g/m*3 8.5 C 0 km/h
561 20-04-2021 22:40:00 8.4 C 6.79 g/m*3 8.4 C 0 km/h
562 20-04-2021 22:45:00 8.3 C 6.74 g/m*3 8.3 C 0 km/h
563 20-04-2021 22:50:00 8.2 C 6.78 g/m*3 8.2 C 0 km/h
564 20-04-2021 22:55:00 8 C 6.7 g/m*3 8 C 0 km/h
565 20-04-2021 23:00:00 7.9 C 6.74 g/m*3 7.9 C 0 km/h
566 20-04-2021 23:05:00 7.8 C 6.69 g/m*3 7.8 C 0 km/h
567 20-04-2021 23:10:00 7.7 C 6.65 g/m*3 7.7 C 0 km/h
568 20-04-2021 23:15:00 7.6 C 6.69 g/m*3 7.6 C 0 km/h
569 20-04-2021 23:20:00 7.5 C 6.72 g/m*3 7.5 C 0 km/h
570 20-04-2021 23:25:00 7.4 C 6.68 g/m*3 7.4 C 0 km/h
571 20-04-2021 23:30:00 7.3 C 6.72 g/m*3 7.3 C 0 km/h
572 20-04-2021 23:35:00 7.3 C 6.72 g/m*3 7.3 C 0 km/h
573 20-04-2021 23:40:00 7.2 C 6.67 g/m*3 7.2 C 0 km/h
574 20-04-2021 23:45:00 7.1 C 6.63 g/m*3 7.1 C 0 km/h
575 20-04-2021 23:50:00 6.9 C 6.54 g/m*3 6.9 C 0 km/h
Sensor: Nr:Datum:Temp:Abs-Feuchte:Windchill:Wind:
Aussen-T/F 576 20-04-2021 23:55:00 6.8 C 6.5 g/m*3 6.8 C 0 km/h

Legende:
   Min
   Max


Maximal/Minimal-Werte vom 19.04.2021 - 20.04.2021

Sensor Min Max Avg
Temp
(Aussen-T/F)
2.1 °C
20-04-2021  06:35:00
18.7 °C
20-04-2021  18:25:00
9.89 °C
Abs-Feuchte
(Aussen-T/F)
5.31 g/m*3
20-04-2021  06:35:00
8.79 g/m*3
19-04-2021  12:40:00
7.27 g/m*3
Windchill
(Aussen-T/F)
2.1 C
20-04-2021  06:35:00
18.7 C
20-04-2021  18:25:00
9.87 C

Die Daten stammen von einer Davis Vantage Pro 2 Wetter-Station und werden unter Linux mit der Software wview2wettercgi und aufbereitet. Alle Angaben erfolgen ohne Gewähr für ihre Vollständigkeit oder Richtigkeit.
Kontakt: Rainer Krienke krienke@uni-koblenz.de . Meine Webseiten an der Uni Koblenz oder privat.
Version: $Revision: 0.78 $